Weather History for Crestview, FL

Change the Weather History Date:

Saturday, November 10, 2012

  Actual Average Record
Temperature  
Mean Temperature 54 °F -  
Max Temperature 73 °F 70 °F 82 °F (2002)
Min Temperature 36 °F 46 °F 33 °F (1991)
Degree Days  
Heating Degree Days 10    
Growing Degree Days 4 (Base 50)    
Moisture  
Dew Point 44 °F    
Average Humidity 75    
Maximum Humidity 97    
Minimum Humidity 37    
Precipitation  
Precipitation 0.00 in - - ()
Sea Level Pressure  
Sea Level Pressure 30.29 in    
Wind  
Wind Speed 1 mph (SE)    
Max Wind Speed 7 mph    
Max Gust Speed -    
Visibility 8 miles    
Events      
Averages and records for this station are not official NWS values.
T = Trace of Precipitation, MM = Missing Value Source: NWS Daily Summary

Daily Weather History Graph

Daily Weather History Graph

Search for Another Location

Airport:

Trip Planner

Search our weather history database for the weather conditions in past years. The results will help you decide how hot, cold, wet, or windy it might be!

Date:

Astronomy

Nov. 10, 2012 Rise Set
Actual Time 6:08 AM CST 4:51 PM CST
Civil Twilight 5:43 AM CST 5:16 PM CST
Nautical Twilight 5:14 AM CST 5:45 PM CST
Astronomical Twilight 4:45 AM CST 6:13 PM CST
Moon 2:26 AM CST (11/10) 2:26 PM CST (11/10)
Length of Visible Light 11h 32m
Length of Day
10h 42m
Waning Crescent, 14% of the Moon is Illuminated
Nov 10
Waning Crescent
Nov 13
New
Nov 20
First Quarter
Nov 28
Full
Dec 6
Last Quarter

Hourly Weather History & Observations

Time (CST) Temp. Dew Point Humidity Pressure Visibility Wind Dir Wind Speed Gust Speed Precip Events Conditions
12:53 AM 39.0 °F 37.0 °F 93% 30.27 in 5.0 mi Calm Calm - N/A   Clear
1:53 AM 37.9 °F 36.0 °F 93% 30.27 in 5.0 mi Calm Calm - N/A   Clear
2:53 AM 37.9 °F 36.0 °F 93% 30.27 in 7.0 mi Calm Calm - N/A   Clear
3:53 AM 37.0 °F 35.1 °F 93% 30.27 in 7.0 mi Calm Calm - N/A   Clear
4:53 AM 36.0 °F 34.0 °F 93% 30.29 in 5.0 mi Calm Calm - N/A   Clear
5:53 AM 36.0 °F 34.0 °F 93% 30.31 in 6.0 mi Calm Calm - N/A   Clear
6:53 AM 37.9 °F 35.1 °F 89% 30.33 in 7.0 mi Calm Calm - N/A   Clear
7:53 AM 48.0 °F 44.1 °F 86% 30.34 in 9.0 mi ENE 4.6 mph - N/A   Clear
8:53 AM 59.0 °F 48.0 °F 67% 30.34 in 10.0 mi ENE 3.5 mph - N/A   Clear
9:53 AM 68.0 °F 48.0 °F 49% 30.35 in 10.0 mi Variable 4.6 mph - N/A   Clear
10:53 AM 71.1 °F 46.0 °F 41% 30.33 in 10.0 mi Calm Calm - N/A   Clear
11:53 AM 72.0 °F 46.9 °F 41% 30.30 in 10.0 mi Variable 5.8 mph - N/A   Clear
12:53 PM 73.0 °F 45.0 °F 37% 30.27 in 10.0 mi Calm Calm - N/A   Clear
1:53 PM 73.9 °F 46.9 °F 38% 30.25 in 10.0 mi Variable 3.5 mph - N/A   Clear
2:53 PM 73.0 °F 48.9 °F 42% 30.26 in 10.0 mi SW 6.9 mph - N/A   Scattered Clouds
3:53 PM 71.1 °F 51.1 °F 49% 30.26 in 10.0 mi South 6.9 mph - N/A   Partly Cloudy
4:53 PM 66.0 °F 52.0 °F 60% 30.27 in 10.0 mi Calm Calm - N/A   Clear
5:53 PM 57.0 °F 52.0 °F 83% 30.28 in 10.0 mi Calm Calm - N/A   Clear
6:53 PM 54.0 °F 51.1 °F 90% 30.29 in 10.0 mi Calm Calm - N/A   Clear
7:53 PM 52.0 °F 48.9 °F 89% 30.29 in 9.0 mi Calm Calm - N/A   Clear
8:53 PM 48.9 °F 48.0 °F 97% 30.30 in 8.0 mi Calm Calm - N/A   Clear
9:53 PM 48.0 °F 46.0 °F 93% 30.30 in 8.0 mi Calm Calm - N/A   Clear
10:53 PM 46.9 °F 45.0 °F 93% 30.29 in 7.0 mi Calm Calm - N/A   Clear
11:53 PM 46.9 °F 44.1 °F 90% 30.28 in 6.0 mi Calm Calm - N/A   Clear